White Plains, CT

6:02 AM EST on December 10, 2019 (GMT -0500)
Westchester County

Weather History for KHPN - August, 2019

Change the Weather History Date:

Wednesday, August 7, 2019

  Actual Average Record
Temperature  
Mean Temperature 74 °F -  
Max Temperature 82 °F 80 °F 95 °F (2001)
Min Temperature 68 °F 63 °F 55 °F (1979)
Cooling Degree Days 10    
Growing Degree Days 24 (Base 50)    
Moisture  
Dew Point 70 °F    
Average Humidity 89    
Maximum Humidity 100    
Minimum Humidity 69    
Precipitation  
Precipitation 0.18 in - - ()
Sea Level Pressure  
Sea Level Pressure 29.80 in    
Wind  
Wind Speed 5 mph (South)    
Max Wind Speed 13 mph    
Max Gust Speed 22 mph    
Visibility 7 miles    
Events Rain , Thunderstorm    
Averages and records for this station are not official NWS values.
T = Trace of Precipitation, MM = Missing Value Source: NWS Daily Summary

Daily Weather History Graph

Daily Weather History Graph

Search for Another Location

Airport or City:

Astronomy

Aug. 07, 2019 Rise Set
Actual Time 5:56 AM EDT 8:04 PM EDT
Civil Twilight 5:25 AM EDT 8:34 PM EDT
Nautical Twilight 4:48 AM EDT 9:11 PM EDT
Astronomical Twilight 4:07 AM EDT 9:52 PM EDT
Moon 1:29 PM EDT (8/7) No Moon Set
Length of Visible Light 15h 08m
Length of Day
14h 08m
Waxing Crescent, 49% of the Moon is Illuminated
Aug 7
Waxing Crescent
Aug 7
First Quarter
Aug 15
Full
Aug 23
Last Quarter
Aug 30
New

Hourly Weather History & Observations

Time (EDT) Temp. Heat Index Dew Point Humidity Pressure Visibility Wind Dir Wind Speed Gust Speed Precip Events Conditions
12:56 AM 68.0 °F - 66.2 °F 94% 29.83 in 9.0 mi SE 4.6 mph - N/A   Mostly Cloudy
1:56 AM 69.8 °F - 68.0 °F 94% 29.83 in 10.0 mi Calm Calm - N/A   Scattered Clouds
2:56 AM 69.8 °F - 66.2 °F 88% 29.83 in 8.0 mi Calm Calm - N/A   Clear
3:56 AM 69.8 °F - 68.0 °F 94% 29.82 in 10.0 mi SSW 3.5 mph - N/A   Partly Cloudy
4:56 AM 69.8 °F - 68.0 °F 94% 29.82 in 10.0 mi South 3.5 mph - N/A   Partly Cloudy
5:56 AM 69.8 °F - 68.0 °F 94% 29.83 in 7.0 mi SSE 4.6 mph - N/A   Scattered Clouds
6:34 AM 69.8 °F - 69.8 °F 100% 29.84 in 1.5 mi SSE 4.6 mph - N/A   Scattered Clouds
6:56 AM 71.6 °F - 69.8 °F 94% 29.83 in 1.5 mi Variable 3.5 mph - N/A   Scattered Clouds
7:56 AM 73.4 °F - 71.6 °F 94% 29.83 in 2.0 mi SSE 4.6 mph - N/A   Overcast
8:56 AM 73.4 °F - 71.6 °F 94% 29.84 in 2.5 mi Variable 6.9 mph - N/A   Mostly Cloudy
9:56 AM 77.0 °F - 68.0 °F 74% 29.83 in 10.0 mi SSW 6.9 mph 17.3 mph N/A   Scattered Clouds
10:56 AM 80.1 °F 82.9 °F 69.1 °F 69% 29.83 in 10.0 mi SSE 11.5 mph 18.4 mph N/A   Scattered Clouds
11:20 AM 79.0 °F - 68.0 °F 69% 29.85 in 10.0 mi South 11.5 mph - N/A   Mostly Cloudy
11:56 AM 80.1 °F 83.2 °F 70.0 °F 71% 29.83 in 10.0 mi South 10.4 mph 17.3 mph N/A   Mostly Cloudy
12:56 PM 80.1 °F 83.2 °F 70.0 °F 71% 29.82 in 10.0 mi South 10.4 mph 21.9 mph N/A   Mostly Cloudy
1:56 PM 81.0 °F 85.2 °F 72.0 °F 74% 29.78 in 10.0 mi SSE 10.4 mph 18.4 mph N/A   Mostly Cloudy
2:56 PM 79.0 °F - 72.0 °F 79% 29.77 in 10.0 mi SSE 12.7 mph - N/A   Mostly Cloudy
3:30 PM 77.0 °F - 73.0 °F 88% 29.80 in 9.0 mi South 12.7 mph 18.4 mph 0.01 in Rain , Thunderstorm Light Thunderstorms and Rain
3:56 PM 77.0 °F - 73.0 °F 88% 29.77 in 9.0 mi SSE 8.1 mph - 0.02 in Rain , Thunderstorm Light Thunderstorms and Rain
4:05 PM 75.9 °F - 72.0 °F 87% 29.76 in 5.0 mi Variable 3.5 mph - 0.02 in Rain Light Rain
4:56 PM 75.9 °F - 73.0 °F 91% 29.75 in 10.0 mi South 10.4 mph - 0.02 in   Mostly Cloudy
5:52 PM 75.2 °F - 73.4 °F 94% 29.79 in 10.0 mi Variable 5.8 mph - N/A Rain , Thunderstorm Light Thunderstorms and Rain
5:56 PM 75.0 °F - 73.0 °F 94% 29.77 in 6.0 mi South 3.5 mph - N/A Rain , Thunderstorm Light Thunderstorms and Rain
6:24 PM 75.0 °F - 73.0 °F 94% 29.78 in 1.5 mi WSW 9.2 mph - 0.04 in Rain , Thunderstorm Light Thunderstorms and Rain
6:56 PM 72.0 °F - 71.1 °F 97% 29.78 in 1.5 mi WSW 4.6 mph - N/A Rain , Thunderstorm Light Thunderstorms and Rain
7:13 PM 71.1 °F - 69.1 °F 93% 29.79 in 6.0 mi SW 3.5 mph - 0.02 in Rain Light Rain
7:56 PM 70.0 °F - 69.1 °F 97% 29.78 in 6.0 mi Calm Calm - 0.05 in   Mostly Cloudy
8:56 PM 70.0 °F - 68.0 °F 93% 29.77 in 7.0 mi West 4.6 mph - 0.07 in Rain Light Rain
9:56 PM 69.1 °F - 68.0 °F 96% 29.75 in 10.0 mi SSE 3.5 mph - 0.02 in Rain Light Rain
10:56 PM 69.1 °F - 68.0 °F 96% 29.76 in 6.0 mi SSE 4.6 mph - 0.00 in Rain Light Rain
11:56 PM 68.0 °F - 66.9 °F 96% 29.75 in 6.0 mi Calm Calm - 0.00 in   Scattered Clouds